QPF
0.00 0.00 0.00 0.00 0.00 0.00 0.00 0.00 0.00 0.00 0.00 0.00 0.00 0.00 0.00 0.00 0.00 0.00 0.00 0.00 0.02 0.04 0.03 0.01 0.01 0.00 0.00 0.00 0.00 0.00 0.00 0.00 0.00 0.00 0.01 0.01 0.00 0.00 0.00 0.00 0.00 0.00 0.00
0.00 0.00 0.00 0.00 0.00 0.00 0.00 0.00 0.00 0.00 0.00 0.00 0.00 0.00 0.00 0.00 0.00 0.00 0.00 0.00 0.00 0.01 0.01 0.01 0.01 0.00 0.00 0.00 0.00 0.00 0.00 0.00 0.00 0.00 0.01 0.00 0.00 0.01 0.00 0.00 0.00 0.00 0.00
0.00 0.00 0.00 0.00 0.00 0.00 0.00 0.00 0.00 0.00 0.00 0.00 0.00 0.00 0.00 0.00 0.00 0.00 0.00 0.00 0.00 0.00 0.01 0.00 0.02 0.01 0.01 0.00 0.00 0.00 0.01 0.03 0.04 0.04 0.02 0.01 0.00 0.00 0.00 0.00 0.00 0.00 0.00
0.00 0.00 0.00 0.00 0.00 0.00 0.00 0.00 0.00 0.00 0.00 0.00 0.00 0.00 0.00 0.00 0.00 0.00 0.00 0.00 0.00 0.01 0.00 0.01 0.02 0.00 0.01 0.01 0.00 0.00 0.01 0.08 0.13 0.11 0.07 0.01 0.01 0.00 0.00 0.00 0.00 0.00 0.00
0.00 0.00 0.00 0.00 0.00 0.00 0.00 0.00 0.00 0.00 0.00 0.00 0.00 0.00 0.00 0.00 0.00 0.00 0.00 0.00 0.00 0.01 0.01 0.01 0.02 0.00 0.03 0.03 0.00 0.00 0.00 0.03 0.08 0.11 0.08 0.03 0.01 0.00 0.00 0.00 0.00 0.00 0.00
0.00 0.00 0.00 0.00 0.00 0.00 0.00 0.00 0.00 0.00 0.00 0.00 0.00 0.00 0.00 0.00 0.00 0.00 0.00 0.00 0.00 0.00 0.00 0.00 0.00 0.00 0.00 0.01 0.00 0.01 0.03 0.06 0.07 0.09 0.06 0.01 0.00 0.00 0.00 0.00 0.00 0.00 0.00
0.00 0.00 0.00 0.00 0.00 0.00 0.00 0.00 0.00 0.00 0.00 0.00 0.00 0.00 0.00 0.00 0.00 0.00 0.00 0.00 0.00 0.00 0.00 0.00 0.00 0.00 0.00 0.01 0.01 0.04 0.07 0.09 0.10 0.04 0.02 0.01 0.00 0.00 0.00 0.00 0.00 0.00 0.00
0.00 0.00 0.00 0.00 0.00 0.00 0.00 0.00 0.00 0.00 0.00 0.00 0.00 0.00 0.00 0.00 0.00 0.00 0.00 0.00 0.00 0.00 0.00 0.00 0.00 0.00 0.00 0.04 0.06 0.06 0.05 0.08 0.07 0.03 0.00 0.00 0.00 0.00 0.00 0.00 0.00 0.00 0.00
0.00 0.00 0.00 0.00 0.00 0.00 0.00 0.00 0.00 0.00 0.00 0.00 0.00 0.00 0.00 0.00 0.00 0.00 0.00 0.00 0.00 0.00 0.00 0.00 0.00 0.00 0.02 0.05 0.07 0.05 0.06 0.05 0.04 0.02 0.00 0.00 0.00 0.00 0.00 0.00 0.00 0.00 0.00
0.00 0.00 0.00 0.00 0.00 0.00 0.00 0.00 0.00 0.00 0.00 0.00 0.00 0.00 0.00 0.00 0.00 0.00 0.00 0.00 0.00 0.00 0.00 0.00 0.00 0.02 0.02 0.06 0.07 0.04 0.04 0.03 0.01 0.00 0.00 0.00 0.00 0.00 0.00 0.00 0.00 0.00 0.00
0.00 0.00 0.00 0.00 0.00 0.00 0.00 0.00 0.00 0.00 0.00 0.00 0.00 0.00 0.00 0.00 0.00 0.00 0.00 0.00 0.00 0.00 0.00 0.00 0.01 0.03 0.05 0.02 0.03 0.02 0.01 0.01 0.00 0.00 0.00 0.00 0.00 0.00 0.00 0.00 0.00 0.00 0.00
0.00 0.00 0.00 0.00 0.00 0.00 0.00 0.00 0.00 0.00 0.00 0.00 0.00 0.00 0.00 0.00 0.00 0.00 0.00 0.00 0.00 0.00 0.00 0.00 0.00 0.02 0.06 0.06 0.02 0.00 0.00 0.00 0.00 0.00 0.00 0.00 0.00 0.00 0.00 0.00 0.00 0.00 0.00
0.00 0.00 0.00 0.00 0.00 0.00 0.00 0.00 0.00 0.00 0.00 0.00 0.00 0.00 0.00 0.00 0.00 0.00 0.00 0.00 0.00 0.00 0.02 0.01 0.00 0.02 0.05 0.08 0.04 0.01 0.00 0.00 0.00 0.00 0.00 0.00 0.00 0.00 0.00 0.00 0.00 0.00 0.00
0.00 0.00 0.00 0.00 0.00 0.00 0.00 0.00 0.00 0.00 0.00 0.00 0.00 0.00 0.00 0.00 0.00 0.00 0.00 0.00 0.00 0.00 0.01 0.04 0.02 0.01 0.02 0.02 0.05 0.06 0.01 0.00 0.00 0.00 0.00 0.00 0.01 0.01 0.00 0.00 0.00 0.00 0.00
0.00 0.00 0.00 0.00 0.00 0.00 0.00 0.00 0.00 0.00 0.00 0.00 0.00 0.00 0.01 0.01 0.00 0.00 0.00 0.00 0.00 0.00 0.00 0.01 0.04 0.02 0.01 0.01 0.02 0.02 0.00 0.00 0.00 0.00 0.00 0.01 0.01 0.01 0.01 0.00 0.00 0.00 0.00
0.00 0.00 0.00 0.00 0.00 0.00 0.00 0.00 0.00 0.00 0.00 0.00 0.00 0.00 0.00 0.00 0.00 0.00 0.00 0.00 0.00 0.00 0.00 0.00 0.02 0.03 0.01 0.01 0.01 0.00 0.00 0.00 0.00 0.00 0.01 0.01 0.01 0.02 0.03 0.02 0.00 0.00 0.00
0.00 0.00 0.00 0.00 0.00 0.00 0.00 0.00 0.00 0.00 0.00 0.00 0.00 0.00 0.00 0.00 0.00 0.00 0.00 0.00 0.00 0.00 0.00 0.00 0.00 0.02 0.01 0.02 0.01 0.00 0.00 0.00 0.00 0.01 0.00 0.01 0.02 0.02 0.01 0.01 0.00 0.00 0.00
0.00 0.00 0.00 0.00 0.00 0.00 0.00 0.00 0.00 0.00 0.00 0.00 0.00 0.00 0.00 0.00 0.00 0.00 0.00 0.00 0.00 0.00 0.00 0.00 0.00 0.00 0.01 0.02 0.00 0.01 0.00 0.00 0.00 0.00 0.00 0.00 0.00 0.00 0.00 0.00 0.00 0.00 0.00
0.00 0.00 0.00 0.00 0.00 0.00 0.00 0.00 0.00 0.00 0.00 0.00 0.00 0.00 0.00 0.00 0.00 0.00 0.00 0.00 0.00 0.00 0.00 0.00 0.00 0.00 0.00 0.01 0.00 0.00 0.00 0.00 0.00 0.00 0.00 0.00 0.00 0.00 0.00 0.00 0.00 0.00 0.00
0.00 0.00 0.00 0.00 0.00 0.00 0.00 0.00 0.00 0.00 0.00 0.00 0.00 0.00 0.00 0.00 0.00 0.00 0.00 0.00 0.00 0.00 0.00 0.00 0.00 0.00 0.00 0.00 0.00 0.00 0.00 0.00 0.00 0.00 0.00 0.00 0.00 0.00 0.00 0.00 0.00 0.00 0.00
0.00 0.00 0.00 0.00 0.00 0.00 0.00 0.00 0.00 0.00 0.00 0.00 0.00 0.00 0.00 0.00 0.00 0.00 0.00 0.00 0.00 0.00 0.00 0.00 0.00 0.00 0.00 0.00 0.00 0.00 0.00 0.00 0.00 0.00 0.00 0.00 0.00 0.00 0.00 0.00 0.00 0.00 0.00
0.00 0.00 0.00 0.00 0.00 0.00 0.00 0.00 0.00 0.00 0.00 0.00 0.00 0.00 0.00 0.00 0.00 0.00 0.00 0.00 0.00 0.00 0.00 0.00 0.00 0.00 0.00 0.00 0.00 0.00 0.00 0.00 0.00 0.00 0.00 0.00 0.00 0.00 0.00 0.00 0.00 0.00 0.00
0.00 0.00 0.00 0.00 0.00 0.00 0.00 0.00 0.00 0.00 0.00 0.00 0.00 0.00 0.00 0.00 0.00 0.00 0.00 0.00 0.00 0.00 0.00 0.00 0.00 0.00 0.00 0.00 0.00 0.00 0.00 0.00 0.00 0.00 0.00 0.00 0.00 0.00 0.00 0.00 0.00 0.00 0.00
0.00 0.00 0.00 0.00 0.00 0.00 0.00 0.00 0.00 0.00 0.00 0.00 0.00 0.00 0.00 0.00 0.00 0.00 0.00 0.00 0.00 0.00 0.00 0.00 0.00 0.00 0.00 0.00 0.00 0.00 0.00 0.00 0.00 0.00 0.00 0.00 0.00 0.00 0.00 0.00 0.01 0.01 0.00
0.00 0.00 0.00 0.00 0.00 0.00 0.00 0.00 0.00 0.00 0.00 0.00 0.00 0.00 0.00 0.00 0.00 0.00 0.00 0.00 0.00 0.00 0.00 0.00 0.00 0.00 0.00 0.00 0.00 0.00 0.00 0.00 0.00 0.00 0.00 0.00 0.00 0.00 0.00 0.00 0.01 0.01 0.00
0.00 0.00 0.00 0.00 0.00 0.00 0.00 0.00 0.00 0.00 0.00 0.00 0.00 0.00 0.00 0.00 0.00 0.00 0.00 0.00 0.00 0.00 0.00 0.00 0.00 0.00 0.00 0.00 0.00 0.00 0.00 0.00 0.00 0.00 0.00 0.00 0.00 0.00 0.01 0.01 0.00 0.00 0.00
MSLP
1008.04 1007.71 1007.65 1007.55 1007.43 1007.33 1007.53 1007.46 1007.38 1007.26 1007.34 1007.37 1007.21 1007.19 1007.23 1007.22 1007.12 1006.98 1006.85 1006.51 1006.31 1006.28 1006.21 1006.06 1005.83 1005.81 1005.98 1006.24 1006.43 1006.76 1007.25 1007.58 1007.55 1006.57 1006.32 1006.10 1006.11 1005.43 1006.18 1006.56 1006.44 1006.29 1006.10
1008.18 1008.12 1008.10 1007.90 1007.70 1007.72 1007.42 1006.97 1006.82 1006.85 1006.69 1006.60 1006.55 1006.57 1006.51 1006.38 1006.46 1006.55 1006.26 1005.95 1005.85 1005.63 1005.47 1005.51 1005.24 1005.08 1005.24 1005.59 1005.90 1006.15 1006.45 1006.58 1006.91 1006.54 1006.26 1005.84 1005.35 1005.43 1006.21 1006.22 1006.28 1005.95 1005.36
1008.28 1008.15 1007.94 1007.87 1007.79 1007.68 1007.46 1007.21 1007.15 1007.10 1006.71 1006.42 1006.23 1006.08 1005.86 1005.63 1005.63 1005.73 1005.64 1005.37 1005.12 1004.94 1004.78 1004.75 1004.49 1004.68 1004.80 1004.98 1005.11 1005.49 1005.76 1005.91 1006.15 1006.35 1006.11 1005.66 1005.68 1005.85 1006.12 1006.27 1006.05 1005.82 1005.20
1008.30 1008.10 1007.94 1007.68 1007.46 1007.31 1007.02 1006.85 1006.72 1006.45 1006.36 1006.24 1006.05 1005.71 1005.32 1005.00 1004.86 1004.85 1004.87 1004.77 1004.50 1004.04 1003.85 1003.84 1003.92 1003.92 1004.00 1004.22 1004.57 1004.75 1005.01 1005.22 1005.59 1005.78 1005.92 1005.89 1005.71 1005.67 1005.86 1006.07 1006.08 1005.90 1005.51
1008.06 1007.71 1007.41 1007.17 1006.85 1006.55 1006.36 1006.08 1005.91 1005.79 1005.57 1005.38 1005.28 1005.14 1004.93 1004.61 1004.34 1004.27 1004.22 1004.09 1004.02 1003.65 1003.23 1002.95 1002.86 1003.05 1003.25 1003.34 1003.63 1003.72 1004.06 1004.33 1004.82 1005.20 1005.60 1005.42 1005.50 1005.75 1005.56 1005.80 1006.27 1006.27 1006.07
1007.80 1007.57 1007.15 1006.73 1006.37 1005.90 1005.48 1005.29 1005.12 1004.96 1004.81 1004.77 1004.74 1004.44 1004.23 1004.00 1003.80 1003.63 1003.62 1003.65 1003.45 1003.32 1002.85 1002.50 1002.29 1002.32 1002.45 1002.57 1002.54 1002.60 1002.74 1003.19 1003.74 1004.41 1004.75 1004.58 1005.07 1005.25 1005.25 1005.47 1005.96 1006.51 1006.77
1007.79 1007.24 1006.80 1006.38 1005.89 1005.45 1005.03 1004.64 1004.24 1003.90 1003.77 1003.70 1003.64 1003.62 1003.21 1003.08 1002.98 1002.94 1002.84 1003.00 1002.89 1002.52 1002.39 1001.96 1001.88 1001.66 1001.70 1001.87 1001.95 1002.04 1002.18 1002.31 1002.55 1002.99 1003.51 1003.92 1004.21 1004.39 1004.86 1005.52 1005.87 1006.10 1006.22
1006.98 1006.45 1006.06 1005.66 1005.19 1004.78 1004.33 1003.82 1003.38 1003.04 1002.62 1002.27 1002.13 1002.24 1002.01 1002.04 1002.23 1002.27 1002.27 1002.13 1001.95 1001.62 1001.57 1001.21 1001.13 1001.02 1001.16 1001.08 1001.13 1001.34 1001.47 1001.91 1002.34 1002.81 1002.15 1002.64 1003.08 1003.75 1004.19 1004.80 1005.72 1006.14 1006.00
1006.09 1005.72 1005.38 1005.08 1004.67 1004.11 1003.47 1003.18 1002.91 1002.17 1001.23 1000.51 1000.50 1000.70 1000.79 1001.01 1001.07 1001.27 1001.51 1001.33 1001.10 1000.67 1000.43 1000.40 1000.35 1000.33 1000.04 1000.06 1000.28 1000.43 1000.90 1001.09 1001.66 1002.50 1001.85 1002.25 1003.06 1003.60 1004.30 1005.14 1005.74 1006.26 1006.34
1005.66 1005.10 1004.80 1004.62 1003.84 1003.35 1003.09 1002.47 1001.93 1001.49 1000.68 1000.00 999.60 999.62 999.74 999.92 1000.11 1000.31 1000.34 1000.50 1000.33 1000.02 999.57 999.58 999.72 999.61 999.54 999.69 999.87 999.72 1000.06 1000.57 1001.76 1002.39 1002.60 1003.09 1003.50 1003.87 1004.13 1004.38 1005.20 1005.78 1005.85
1005.09 1004.51 1004.03 1003.80 1003.29 1002.75 1002.31 1001.92 1001.42 1000.66 1000.01 999.50 999.01 998.63 998.73 998.80 999.21 999.29 999.30 999.67 999.55 999.19 998.90 998.77 998.75 998.84 998.89 999.42 998.90 999.18 999.09 999.97 1001.07 1001.63 1002.32 1003.02 1003.57 1003.78 1004.06 1004.34 1004.76 1004.98 1005.37
1004.47 1003.86 1003.41 1002.93 1002.41 1001.88 1001.47 1000.96 1000.58 999.98 999.23 998.60 998.26 998.20 998.07 997.98 998.06 998.19 998.36 998.58 998.27 998.43 998.11 997.96 997.92 998.09 998.06 998.75 999.10 998.60 998.94 999.69 1000.65 1001.47 1002.17 1002.87 1003.17 1003.42 1003.41 1004.06 1004.34 1004.20 1004.18
1003.76 1003.17 1002.69 1002.14 1001.58 1001.15 1000.75 1000.20 999.74 999.35 998.79 997.94 997.49 997.22 997.10 997.12 997.05 997.23 997.41 997.37 997.44 997.76 997.31 997.10 997.37 998.41 998.26 998.88 998.73 999.73 999.43 999.66 1000.51 1001.55 1001.97 1002.34 1002.32 1002.57 1003.08 1003.45 1003.78 1003.96 1003.72
1003.11 1002.48 1001.88 1001.35 1000.58 1000.27 999.81 999.25 998.89 998.46 998.01 997.50 996.97 996.54 996.51 996.54 996.40 996.43 996.61 996.71 996.77 996.83 996.57 996.65 996.71 997.32 997.91 998.52 999.32 999.83 999.73 999.39 1000.05 1000.70 1001.37 1001.80 1002.16 1002.69 1003.10 1003.34 1003.59 1003.61 1003.72
1002.42 1001.74 1001.07 1000.44 999.78 999.19 998.75 998.29 997.93 997.62 997.56 997.07 996.52 996.33 996.26 996.02 995.66 995.83 995.95 996.14 996.22 996.17 996.16 995.99 996.07 996.58 997.46 998.28 998.82 999.21 999.61 999.84 1000.06 1000.44 1001.33 1001.80 1002.25 1002.34 1002.80 1002.99 1003.19 1003.50 1003.79
1001.87 1000.95 1000.21 999.67 998.92 998.29 997.73 997.11 996.82 996.74 996.75 996.64 996.42 996.52 996.21 995.99 995.54 995.40 995.45 995.61 995.69 996.01 996.43 996.44 996.52 996.79 997.52 998.43 998.82 999.18 999.32 999.60 999.95 1000.38 1000.64 1001.23 1001.81 1002.17 1002.72 1003.29 1003.25 1003.55 1003.88
1001.29 1000.36 999.53 998.78 998.00 997.41 996.82 996.39 995.76 995.54 995.48 995.61 995.59 995.54 995.63 995.84 995.90 995.21 995.31 995.39 995.31 995.59 995.75 996.01 996.28 996.92 997.60 997.79 998.07 998.37 998.67 998.95 999.50 999.93 1000.35 1000.86 1001.31 1001.85 1002.50 1002.92 1003.08 1003.27 1003.39
1000.48 999.56 998.69 997.69 996.95 996.31 995.86 995.44 995.19 994.90 994.65 994.52 994.65 994.81 994.97 995.33 995.69 995.44 995.34 995.45 995.74 995.76 995.74 995.86 996.13 996.44 996.50 996.92 997.21 997.57 998.03 998.58 999.25 999.77 999.70 1000.10 1000.72 1001.38 1001.97 1002.31 1002.58 1002.69 1002.76
999.48 998.46 997.56 996.66 995.74 995.09 994.72 994.35 994.16 994.00 993.83 993.74 993.86 994.00 994.28 994.61 995.19 995.40 995.33 995.38 995.60 995.85 996.01 995.79 995.94 996.19 996.34 996.52 996.56 996.96 997.33 997.83 998.52 998.79 999.23 999.89 1000.26 1001.03 1001.35 1001.61 1002.02 1002.36 1002.56
998.68 997.59 996.56 995.52 994.35 993.74 993.41 993.20 992.94 992.80 992.82 992.90 992.97 993.17 993.51 993.98 994.48 994.86 995.09 995.25 995.43 995.71 995.81 995.90 995.98 996.10 996.02 996.12 996.35 996.71 997.05 997.53 998.28 998.45 998.93 999.50 1000.24 1000.65 1000.76 1001.24 1001.79 1002.19 1002.45
998.32 996.74 995.43 994.23 992.96 992.48 992.20 991.95 991.81 991.86 991.97 992.12 992.29 992.55 992.83 993.07 993.42 993.79 994.37 994.78 995.03 995.41 995.70 995.75 995.85 995.97 995.84 995.85 995.96 996.28 996.70 997.17 997.59 998.00 998.62 999.15 999.88 1000.03 1000.34 1000.68 1001.31 1001.71 1002.14
997.83 996.43 994.80 993.43 992.42 991.68 991.36 991.16 990.81 990.95 991.32 991.61 991.81 992.01 992.46 992.77 992.68 993.17 993.67 994.40 994.80 995.11 995.36 995.37 995.48 995.67 995.71 995.86 995.90 996.07 996.30 996.60 997.10 997.68 998.13 998.57 999.07 999.54 1000.05 1000.52 1001.16 1001.52 1002.01
997.44 996.11 994.84 993.62 992.72 991.96 991.26 991.15 990.90 990.94 991.12 991.30 991.48 991.72 992.17 992.20 992.58 992.97 993.41 993.89 994.39 994.77 994.93 994.97 995.11 995.36 995.43 995.53 995.62 995.73 996.04 996.38 996.70 997.02 997.54 998.07 998.71 999.21 999.75 1000.05 1000.54 1001.22 1001.78
997.62 996.51 995.39 994.35 993.45 992.63 991.97 991.57 991.29 991.24 991.19 991.24 991.33 991.41 991.80 992.14 992.48 992.71 993.19 993.64 994.04 994.37 994.54 994.56 994.65 994.88 995.23 995.32 995.19 995.17 995.36 995.71 996.08 996.41 996.86 997.79 998.42 998.92 999.42 999.82 1000.23 1000.84 1001.43
998.04 997.11 996.18 995.27 994.33 993.56 992.76 992.11 991.58 991.32 991.20 991.12 991.12 991.28 991.51 991.85 992.23 992.54 992.83 993.26 993.67 993.88 994.06 994.10 994.41 994.72 994.98 995.05 995.13 995.02 995.22 995.83 996.02 996.35 996.69 997.27 998.11 998.56 999.00 999.44 999.98 1000.45 1001.30
998.68 997.94 997.11 996.19 995.34 994.56 993.88 993.23 992.47 991.82 991.37 991.13 991.08 991.22 991.42 991.64 991.95 992.14 992.38 992.75 993.22 993.68 993.91 993.90 994.07 994.47 994.80 994.99 995.18 995.33 995.79 996.13 995.99 996.12 996.56 997.27 997.98 998.34 998.60 999.13 999.82 1000.41 1001.16
Thickness
5637 5639 5635 5634 5631 5630 5627 5627 5627 5627 5625 5621 5619 5618 5618 5618 5617 5619 5619 5621 5623 5625 5628 5630 5636 5638 5640 5640 5641 5642 5640 5638 5640 5651 5655 5659 5659 5668 5663 5665 5673 5673 5679
5619 5616 5614 5614 5614 5614 5615 5616 5615 5614 5612 5609 5606 5604 5602 5603 5602 5602 5605 5607 5609 5612 5614 5618 5624 5627 5629 5630 5631 5633 5634 5636 5633 5637 5640 5645 5651 5649 5647 5657 5661 5666 5678
5601 5600 5600 5599 5598 5597 5597 5595 5592 5590 5592 5591 5589 5587 5588 5590 5590 5589 5589 5592 5596 5599 5603 5606 5611 5613 5616 5619 5623 5624 5626 5629 5629 5629 5632 5635 5638 5639 5641 5642 5650 5658 5666
5586 5585 5583 5582 5582 5581 5580 5578 5577 5576 5574 5572 5571 5572 5572 5574 5575 5576 5576 5578 5582 5589 5594 5596 5597 5602 5607 5610 5613 5615 5617 5621 5622 5623 5624 5626 5630 5633 5634 5636 5640 5646 5654
5569 5569 5569 5568 5567 5567 5567 5566 5564 5562 5561 5560 5559 5558 5559 5557 5557 5558 5558 5564 5567 5572 5580 5588 5591 5594 5597 5602 5604 5609 5612 5616 5617 5618 5616 5620 5623 5625 5629 5630 5631 5634 5638
5557 5557 5557 5555 5555 5556 5556 5553 5551 5551 5549 5546 5544 5544 5543 5544 5542 5537 5540 5544 5551 5555 5566 5574 5580 5585 5588 5592 5600 5605 5610 5612 5613 5611 5610 5617 5618 5620 5622 5624 5626 5623 5622
5540 5543 5544 5543 5543 5544 5544 5543 5543 5542 5538 5534 5530 5528 5529 5527 5525 5522 5525 5528 5537 5547 5553 5563 5568 5577 5582 5587 5592 5596 5601 5606 5610 5609 5608 5611 5614 5616 5614 5613 5615 5617 5617
5534 5535 5534 5534 5534 5533 5531 5530 5529 5528 5529 5530 5528 5519 5517 5514 5507 5508 5510 5517 5527 5539 5546 5555 5561 5568 5574 5582 5589 5593 5597 5599 5602 5604 5610 5612 5613 5611 5611 5607 5603 5604 5609
5527 5525 5526 5523 5521 5519 5516 5510 5506 5509 5517 5524 5521 5515 5509 5503 5497 5497 5499 5508 5520 5533 5543 5549 5557 5563 5570 5576 5586 5592 5591 5597 5596 5594 5603 5604 5601 5602 5600 5597 5596 5595 5597
5516 5518 5514 5509 5510 5508 5503 5501 5499 5497 5503 5509 5512 5510 5504 5498 5495 5495 5498 5504 5515 5528 5539 5546 5550 5558 5561 5569 5578 5587 5589 5591 5587 5584 5589 5588 5588 5590 5594 5597 5592 5591 5593
5507 5506 5504 5501 5500 5499 5497 5493 5491 5493 5495 5498 5503 5506 5501 5498 5494 5494 5497 5501 5513 5526 5536 5543 5550 5554 5558 5562 5575 5584 5591 5587 5583 5586 5585 5583 5582 5586 5588 5588 5587 5588 5587
5498 5498 5496 5494 5492 5491 5488 5488 5486 5487 5490 5493 5496 5496 5497 5497 5497 5497 5499 5503 5515 5525 5535 5542 5550 5551 5557 5560 5565 5576 5581 5581 5581 5582 5583 5581 5583 5583 5587 5582 5582 5588 5592
5492 5491 5489 5487 5486 5482 5478 5478 5479 5478 5480 5488 5492 5494 5496 5497 5499 5500 5501 5507 5513 5519 5534 5543 5545 5542 5550 5551 5560 5559 5568 5578 5579 5578 5580 5580 5585 5586 5583 5583 5583 5585 5591
5487 5485 5483 5480 5479 5472 5470 5470 5470 5471 5473 5478 5484 5489 5491 5493 5498 5502 5504 5510 5513 5520 5531 5540 5545 5545 5549 5549 5551 5555 5565 5576 5579 5580 5578 5580 5582 5580 5579 5579 5581 5584 5586
5484 5480 5476 5474 5473 5469 5465 5462 5459 5461 5461 5467 5474 5479 5482 5489 5497 5500 5504 5509 5515 5522 5528 5539 5545 5550 5553 5550 5552 5556 5559 5567 5575 5576 5576 5577 5576 5580 5578 5579 5582 5582 5583
5477 5477 5473 5470 5466 5463 5461 5459 5456 5454 5455 5457 5459 5461 5470 5476 5487 5494 5501 5506 5510 5512 5521 5528 5535 5542 5546 5546 5550 5554 5559 5567 5570 5571 5576 5578 5577 5576 5574 5571 5577 5577 5576
5474 5473 5470 5466 5462 5460 5459 5456 5457 5455 5456 5456 5457 5460 5463 5468 5471 5484 5492 5499 5504 5509 5520 5528 5532 5536 5540 5546 5552 5557 5561 5569 5570 5573 5576 5576 5577 5576 5570 5572 5575 5576 5577
5474 5472 5469 5466 5462 5460 5457 5453 5451 5451 5452 5454 5454 5457 5460 5462 5464 5473 5484 5494 5500 5504 5513 5523 5531 5537 5545 5551 5555 5560 5563 5565 5568 5571 5580 5579 5579 5577 5575 5574 5575 5578 5579
5478 5475 5471 5467 5466 5463 5457 5453 5449 5447 5447 5448 5449 5452 5454 5458 5460 5465 5475 5489 5497 5502 5505 5517 5524 5534 5543 5550 5558 5562 5566 5568 5571 5576 5578 5577 5577 5574 5577 5577 5576 5573 5574
5479 5476 5474 5473 5473 5468 5462 5456 5451 5447 5443 5443 5447 5449 5453 5455 5459 5463 5473 5484 5492 5498 5504 5510 5520 5528 5539 5549 5555 5561 5564 5565 5566 5573 5576 5576 5571 5572 5577 5576 5573 5573 5575
5480 5482 5482 5482 5484 5475 5468 5461 5454 5444 5438 5437 5440 5445 5450 5458 5463 5470 5473 5479 5487 5495 5499 5510 5515 5524 5535 5546 5552 5557 5562 5564 5567 5571 5572 5574 5570 5575 5576 5576 5572 5572 5571
5484 5485 5490 5493 5492 5487 5475 5467 5460 5448 5439 5437 5439 5443 5446 5456 5466 5471 5476 5478 5483 5488 5495 5506 5514 5523 5531 5540 5548 5554 5559 5564 5566 5569 5573 5574 5573 5575 5574 5573 5569 5570 5569
5488 5490 5490 5490 5486 5482 5481 5469 5460 5450 5443 5440 5442 5447 5451 5460 5466 5471 5475 5480 5484 5488 5494 5503 5512 5520 5530 5539 5547 5554 5558 5562 5567 5570 5573 5575 5572 5572 5573 5574 5573 5569 5566
5490 5489 5488 5486 5482 5479 5477 5471 5463 5456 5453 5451 5453 5458 5460 5463 5468 5474 5477 5478 5483 5488 5496 5505 5514 5521 5527 5536 5546 5554 5559 5563 5567 5572 5575 5572 5570 5569 5572 5572 5572 5568 5562
5490 5488 5485 5483 5480 5476 5475 5474 5474 5471 5469 5468 5469 5470 5471 5472 5474 5478 5481 5482 5485 5490 5498 5507 5512 5519 5525 5534 5543 5552 5556 5557 5564 5568 5572 5572 5570 5572 5572 5572 5570 5566 5558
5489 5486 5483 5480 5478 5475 5471 5470 5472 5476 5478 5478 5478 5477 5477 5479 5481 5485 5488 5490 5491 5492 5497 5505 5511 5517 5522 5530 5537 5544 5548 5553 5560 5566 5569 5569 5568 5570 5573 5572 5565 5561 5554